Frisco, NC

12:39 AM EST on February 25, 2017 (GMT -0500)
Mitchell

Weather History for KHSE - October, 2012

Change the Weather History Date:

Thursday, October 4, 2012

  Actual Average Record
Temperature  
Mean Temperature 79 °F 69 °F  
Max Temperature 83 °F 75 °F 88 °F (1986)
Min Temperature 74 °F 64 °F 43 °F (1981)
Degree Days  
Heating Degree Days 0 1  
Month to date heating degree days 0 4  
Since 1 July heating degree days 0 7  
Cooling Degree Days 14 5  
Month to date cooling degree days 50 22  
Year to date cooling degree days 2006 1614  
Growing Degree Days 28 (Base 50)    
Moisture  
Dew Point 72 °F    
Average Humidity 79    
Maximum Humidity 94    
Minimum Humidity 63    
Precipitation  
Precipitation 0.00 in 0.18 in 3.64 in (1992)
Month to date precipitation 0.68 0.75  
Year to date precipitation 41.41 44.19  
Snow  
Snow 0.00 in - - ()
Month to date snowfall 0.0  
Since 1 July snowfall 0.0  
Snow Depth 0.00 in    
Sea Level Pressure  
Sea Level Pressure 30.17 in    
Wind  
Wind Speed 6 mph (West)    
Max Wind Speed 13 mph    
Max Gust Speed 18 mph    
Visibility 10 miles    
Events      
T = Trace of Precipitation, MM = Missing Value Source: NWS Daily Summary

Daily Weather History Graph

Daily Weather History Graph

Search for Another Location

Airport or City:

Trip Planner

Search our weather history database for the weather conditions in past years. The results will help you decide how hot, cold, wet, or windy it might be!

Date:

Astronomy

Oct. 04, 2012 Rise Set
Actual Time 7:00 AM EDT 6:41 PM EDT
Civil Twilight 6:34 AM EDT 7:06 PM EDT
Nautical Twilight 6:05 AM EDT 7:36 PM EDT
Astronomical Twilight 5:35 AM EDT 8:05 PM EDT
Moon 9:25 PM EDT (10/4) 11:05 AM EDT (10/4)
Length of Visible Light 12h 32m
Length of Day
11h 41m
Waning Gibbous, 82% of the Moon is Illuminated
Oct 4
Waning Gibbous
Oct 8
Last Quarter
Oct 15
New
Oct 21
First Quarter
Oct 29
Full

Hourly Weather History & Observations

Time (EDT) Temp. Heat Index Dew Point Humidity Pressure Visibility Wind Dir Wind Speed Gust Speed Precip Events Conditions
12:07 AM 78.8 °F - 75.2 °F 89% 30.17 in 8.0 mi SW 8.1 mph - N/A   Partly Cloudy
12:51 AM 78.1 °F - 75.9 °F 93% 30.17 in 8.0 mi WSW 11.5 mph - N/A   Clear
1:51 AM 78.1 °F - 75.0 °F 90% 30.17 in 9.0 mi WSW 9.2 mph - N/A   Clear
2:51 AM 78.1 °F - 75.0 °F 90% 30.17 in 7.0 mi West 6.9 mph - N/A   Partly Cloudy
3:51 AM 77.0 °F - 75.0 °F 94% 30.17 in 10.0 mi West 4.6 mph - N/A   Scattered Clouds
4:51 AM 77.0 °F - 73.9 °F 90% 30.17 in 10.0 mi West 4.6 mph - N/A   Partly Cloudy
5:51 AM 77.0 °F - 73.9 °F 90% 30.18 in 10.0 mi West 6.9 mph - N/A   Clear
6:51 AM 75.9 °F - 73.0 °F 91% 30.19 in 10.0 mi West 5.8 mph - N/A   Clear
7:51 AM 77.0 °F - 73.0 °F 88% 30.19 in 10.0 mi West 5.8 mph - N/A   Clear
8:51 AM 78.1 °F - 73.0 °F 84% 30.20 in 10.0 mi WNW 6.9 mph - N/A   Clear
9:51 AM 79.0 °F - 73.0 °F 82% 30.20 in 10.0 mi West 6.9 mph - N/A   Clear
10:51 AM 79.0 °F - 73.0 °F 82% 30.21 in 10.0 mi West 6.9 mph - N/A   Clear
11:51 AM 80.1 °F 84.2 °F 73.0 °F 79% 30.20 in 10.0 mi WNW 6.9 mph - N/A   Clear
12:51 PM 81.0 °F 84.1 °F 69.1 °F 67% 30.18 in 10.0 mi WNW 6.9 mph - N/A   Clear
1:51 PM 82.0 °F 84.9 °F 68.0 °F 62% 30.17 in 10.0 mi West 5.8 mph - N/A   Clear
2:51 PM 82.0 °F 85.5 °F 69.1 °F 65% 30.15 in 10.0 mi WNW 6.9 mph - N/A   Clear
3:51 PM 82.0 °F 85.5 °F 69.1 °F 65% 30.15 in 10.0 mi West 5.8 mph - N/A   Clear
4:51 PM 81.0 °F 83.8 °F 68.0 °F 65% 30.14 in 10.0 mi West 5.8 mph - N/A   Clear
5:51 PM 79.0 °F - 68.0 °F 69% 30.13 in 10.0 mi Variable 5.8 mph - N/A   Clear
6:51 PM 77.0 °F - 68.0 °F 74% 30.13 in 10.0 mi WSW 4.6 mph - N/A   Clear
7:51 PM 75.9 °F - 68.0 °F 76% 30.14 in 10.0 mi WSW 4.6 mph - N/A   Clear
8:51 PM 75.9 °F - 70.0 °F 82% 30.14 in 10.0 mi WSW 5.8 mph - N/A   Clear
9:51 PM 75.9 °F - 70.0 °F 82% 30.14 in 10.0 mi West 5.8 mph - N/A   Clear
10:51 PM 77.0 °F - 71.1 °F 82% 30.15 in 10.0 mi WSW 8.1 mph - N/A   Mostly Cloudy
11:51 PM 75.0 °F - 70.0 °F 84% 30.14 in 10.0 mi NW 8.1 mph - N/A   Scattered Clouds